Waarnemingen

Advertentie
Mijn weer
Oostende Airport, België (6407): temperatuur & dauwpunt: 06.07.2020 19:00:00 - 12.07.2020 19:00:00 (CEST)Oostende Airport, België (6407): windsnelheid & windstoten: 06.07.2020 19:00:00 - 12.07.2020 19:00:00 (CEST)Oostende Airport, België (6407): windrichting: 06.07.2020 19:00:00 - 12.07.2020 19:00:00 (CEST)Oostende Airport, België (6407): luchtdruk: 06.07.2020 19:00:00 - 12.07.2020 19:00:00 (CEST)Oostende Airport, België (6407): zicht: 06.07.2020 19:00:00 - 12.07.2020 19:00:00 (CEST)
Datum & Tijd tt [°C] td [°C] ff [km/u] ff [kn] fx [km/u] fx [kn] dd ppp [hPa] vv [km]
12.07.2020 19:00:00 17,9 9,2 22 12 29 16 NO 1028,3 10
12.07.2020 18:00:00 17,7 9,2 22 12 32 18 NNO 1028,7 10
12.07.2020 17:00:00 18,2 9,9 21 11 - - NNO 1028,9 10
12.07.2020 16:00:00 18,0 10,3 22 12 36 19 N 1029,2 10
12.07.2020 15:00:00 18,5 11,3 21 11 29 16 NNO 1029,4 10
12.07.2020 14:00:00 18,2 10,9 21 11 - - N 1029,7 10
12.07.2020 13:00:00 17,8 9,7 18 10 25 14 N 1029,7 10
12.07.2020 12:00:00 17,5 11,1 15 8 22 12 N 1029,9 10
12.07.2020 11:00:00 17,1 9,9 5 3 - - ZZO 1029,8 10
12.07.2020 10:00:00 16,8 11,1 9 5 14 8 O 1029,7 10
12.07.2020 09:00:00 15,1 11,7 8 4 11 6 ZO 1029,5 10
12.07.2020 08:00:00 13,2 11,2 4 2 - - ZO 1029,1 10
12.07.2020 07:00:00 9,1 8,7 2 1 4 2 - 1028,7 6
12.07.2020 06:00:00 8,5 7,6 2 1 4 2 ONO 1028,4 5
12.07.2020 05:00:00 9,2 8,4 0 0 - - N 1028,4 4,5
12.07.2020 04:00:00 9,1 8,8 2 1 4 2 O 1028,3 6
12.07.2020 03:00:00 9,7 9,1 2 1 7 4 - 1028,5 10
12.07.2020 02:00:00 10,7 9,9 2 1 - - - 1028,5 10
12.07.2020 01:00:00 11,6 10,3 2 1 11 6 - 1028,6 10
12.07.2020 00:00:00 13,6 10,3 5 3 11 6 N 1028,7 10
11.07.2020 23:00:00 13,6 10,7 9 5 - - NNO 1028,4 10
11.07.2020 22:00:00 14,2 10,5 9 5 22 12 NNO 1028,1 10
11.07.2020 21:00:00 15,2 10,5 13 7 22 12 NNO 1027,9 10
11.07.2020 20:00:00 15,9 10,6 15 8 - - N 1027,8 10
11.07.2020 19:00:00 16,4 10,3 16 9 25 14 NNW 1027,6 10
11.07.2020 18:00:00 16,4 10,9 18 10 29 16 NNW 1027,7 10
11.07.2020 17:00:00 16,3 10,8 18 10 - - NW 1027,4 10
11.07.2020 16:00:00 16,4 10,4 21 11 32 18 NW 1027,3 10
11.07.2020 15:00:00 16,1 10,2 24 13 36 19 WNW 1027,3 10
11.07.2020 14:00:00 16,4 11,1 21 11 - - WNW 1027,1 10
11.07.2020 13:00:00 16,3 11,3 21 11 29 16 WNW 1026,9 10
11.07.2020 12:00:00 15,8 11,0 18 10 29 16 WNW 1026,3 10
11.07.2020 11:00:00 16,4 11,4 15 8 - - NW 1025,9 10
11.07.2020 10:00:00 15,8 11,0 15 8 22 12 NW 1025,4 10
11.07.2020 09:00:00 15,1 10,8 13 7 22 12 NNW 1024,7 10
11.07.2020 08:00:00 14,5 10,7 15 8 - - NW 1024,1 10
11.07.2020 07:00:00 13,7 10,8 13 7 22 12 NW 1023,6 10
11.07.2020 06:00:00 13,2 10,6 11 6 18 10 NW 1023,2 10
11.07.2020 05:00:00 8,6 -1,2 5 3 - - Z 1022,9 4,5
11.07.2020 04:00:00 8,7 2,8 4 2 7 4 - 1022,7 6
11.07.2020 03:00:00 8,9 8,2 4 2 7 4 ZZW 1022,6 10
11.07.2020 02:00:00 10,2 9,3 5 3 - - Z 1022,3 10
11.07.2020 01:00:00 10,9 9,2 8 4 14 8 W 1022,0 10
11.07.2020 00:00:00 13,1 10,4 9 5 14 8 WNW 1021,7 10
10.07.2020 23:00:00 11,8 9,2 9 5 - - W 1021,3 10
10.07.2020 22:00:00 13,0 9,6 9 5 11 6 W 1020,8 10
10.07.2020 21:00:00 15,3 9,7 8 4 14 8 WNW 1020,4 10
10.07.2020 20:00:00 15,3 10,3 9 5 - - N 1020,3 10
10.07.2020 19:00:00 16,3 10,6 8 4 18 10 NNW 1020,0 10
10.07.2020 18:00:00 16,4 10,1 11 6 22 12 WNW 1019,8 30
10.07.2020 17:00:00 16,4 10,0 13 7 - - NNW 1019,4 10
10.07.2020 16:00:00 16,6 10,0 15 8 29 16 NNW 1018,9 10
10.07.2020 15:00:00 16,4 9,7 18 10 29 16 NNW 1018,5 30
10.07.2020 14:00:00 16,6 11,9 18 10 - - NNW 1017,7 10
10.07.2020 13:00:00 16,0 11,7 21 11 32 18 NNW 1017,0 10
10.07.2020 12:00:00 15,0 10,6 21 11 40 21 N 1016,1 10
10.07.2020 11:00:00 15,0 12,6 26 14 - - N 1014,9 10
10.07.2020 10:00:00 15,3 11,1 21 11 32 18 NNW 1014,0 4,0
10.07.2020 09:00:00 15,3 12,1 21 11 29 16 NNW 1012,9 10
10.07.2020 08:00:00 15,1 3,8 18 10 - - NNW 1012,0 10
10.07.2020 07:00:00 14,8 13,5 24 13 32 18 NNW 1011,2 6
10.07.2020 06:00:00 15,5 14,0 24 13 32 18 WNW 1010,3 10
10.07.2020 05:00:00 15,5 14,2 24 13 - - WNW 1009,9 10
10.07.2020 04:00:00 15,5 14,5 18 10 25 14 WZW 1010,0 8
10.07.2020 03:00:00 15,1 14,2 18 10 32 18 WZW 1010,4 6
10.07.2020 02:00:00 15,9 13,9 21 11 - - WZW 1010,4 10
10.07.2020 01:00:00 15,9 14,1 16 9 36 19 ZW 1010,8 10
10.07.2020 00:00:00 16,2 13,9 24 13 36 19 WZW 1011,1 10
09.07.2020 23:00:00 15,9 13,9 18 10 - - ZW 1011,3 10
09.07.2020 22:00:00 16,3 14,6 18 10 36 19 WZW 1011,4 10
09.07.2020 21:00:00 18,3 14,8 22 12 36 19 ZW 1011,7 10
09.07.2020 20:00:00 17,8 15,3 22 12 - - WZW 1012,5 10
09.07.2020 19:00:00 18,3 15,4 26 14 40 21 W 1012,6 10
09.07.2020 18:00:00 18,8 15,5 28 15 40 21 ZW 1013,0 10
09.07.2020 17:00:00 18,5 15,3 28 15 - - ZW 1013,5 10
09.07.2020 16:00:00 17,9 15,2 24 13 47 25 W 1013,7 10
09.07.2020 15:00:00 17,9 14,9 34 18 47 25 W 1014,0 10
09.07.2020 14:00:00 18,3 15,0 31 17 - - WZW 1014,0 10
09.07.2020 13:00:00 17,7 14,9 26 14 40 21 WZW 1014,0 10
09.07.2020 12:00:00 17,2 15,4 22 12 40 21 ZW 1013,8 10
09.07.2020 11:00:00 17,4 14,2 28 15 - - W 1013,9 10
09.07.2020 10:00:00 17,6 14,8 26 14 36 19 ZW 1013,9 10
09.07.2020 09:00:00 16,1 14,3 21 11 32 18 ZW 1014,1 10
09.07.2020 08:00:00 15,3 14,1 18 10 - - ZW 1014,1 10
09.07.2020 07:00:00 14,9 13,8 22 12 36 19 ZW 1014,2 9
09.07.2020 06:00:00 14,9 13,7 24 13 36 19 ZW 1014,3 9
09.07.2020 05:00:00 15,2 14,2 18 10 - - ZW 1014,7 8
09.07.2020 04:00:00 15,3 14,2 24 13 36 19 ZW 1014,7 8
09.07.2020 03:00:00 15,4 14,4 21 11 29 16 ZW 1014,9 7
09.07.2020 02:00:00 15,4 14,4 21 11 - - ZW 1015,3 7
09.07.2020 01:00:00 15,4 14,5 16 9 25 14 ZW 1015,4 7
09.07.2020 00:00:00 15,6 14,7 13 7 22 12 ZW 1015,6 6
08.07.2020 23:00:00 15,8 14,9 9 5 - - ZW 1016,1 4,5
08.07.2020 22:00:00 15,8 14,8 15 8 25 14 WZW 1015,9 3,2
08.07.2020 21:00:00 16,1 15,0 16 9 25 14 ZW 1016,0 3,2
08.07.2020 20:00:00 16,4 15,3 13 7 - - WZW 1016,0 5
08.07.2020 19:00:00 17,3 15,7 16 9 32 18 W 1016,1 8
08.07.2020 18:00:00 17,3 15,8 24 13 32 18 W 1016,1 8
08.07.2020 17:00:00 16,7 15,5 24 13 - - W 1016,5 9
08.07.2020 16:00:00 16,5 15,4 28 15 32 18 W 1016,3 7
08.07.2020 15:00:00 16,8 15,0 22 12 29 16 W 1016,2 10
08.07.2020 14:00:00 16,5 15,1 22 12 - - W 1016,0 10
08.07.2020 13:00:00 17,0 15,1 26 14 36 19 W 1015,8 10
08.07.2020 12:00:00 16,3 15,0 24 13 32 18 W 1015,5 10
08.07.2020 11:00:00 15,7 14,5 22 12 - - W 1015,2 10
08.07.2020 10:00:00 15,4 14,3 24 13 32 18 W 1015,2 8
08.07.2020 09:00:00 15,1 14,1 16 9 25 14 W 1015,1 6
08.07.2020 08:00:00 13,9 13,2 13 7 - - ZZW 1015,0 7
08.07.2020 07:00:00 13,6 13,0 13 7 22 12 ZZW 1015,1 3,5
08.07.2020 06:00:00 13,5 12,9 15 8 22 12 ZZW 1015,3 4,0
08.07.2020 05:00:00 13,4 12,7 15 8 - - ZW 1015,8 5
08.07.2020 04:00:00 13,3 12,6 11 6 22 12 ZZW 1016,4 4,0
08.07.2020 03:00:00 14,1 12,8 13 7 22 12 WZW 1017,2 8
08.07.2020 02:00:00 13,7 11,5 11 6 - - ZW 1017,4 10
08.07.2020 01:00:00 13,6 10,5 11 6 25 14 ZW 1017,8 10
08.07.2020 00:00:00 14,5 9,9 18 10 29 16 WZW 1018,2 10
07.07.2020 23:00:00 14,3 9,3 11 6 - - ZW 1018,3 30
07.07.2020 22:00:00 15,6 8,3 16 9 32 18 WZW 1018,4 10
07.07.2020 21:00:00 16,0 11,2 24 13 43 23 W 1018,6 10
07.07.2020 20:00:00 16,4 10,9 34 18 - - W 1018,8 10
07.07.2020 19:00:00 16,7 10,1 29 16 40 21 W 1018,8 10
07.07.2020 18:00:00 17,6 9,8 22 12 29 16 W 1019,6 10
07.07.2020 17:00:00 17,7 9,1 16 9 - - WNW 1020,2 10
07.07.2020 16:00:00 17,9 8,4 15 8 25 14 NW 1020,7 10
07.07.2020 15:00:00 18,1 6,5 15 8 29 16 WNW 1021,1 10
07.07.2020 14:00:00 18,4 9,7 18 10 - - W 1021,7 10
07.07.2020 13:00:00 17,1 9,5 13 7 22 12 W 1022,0 10
07.07.2020 12:00:00 16,4 9,7 11 6 22 12 W 1022,2 10
07.07.2020 11:00:00 15,7 8,9 15 8 - - WNW 1022,3 10
07.07.2020 10:00:00 15,6 8,4 13 7 22 12 NW 1022,1 10
07.07.2020 09:00:00 15,3 9,2 15 8 25 14 NW 1021,9 10
07.07.2020 08:00:00 15,0 8,8 15 8 - - NW 1021,8 10
07.07.2020 07:00:00 14,3 9,3 16 9 29 16 NW 1021,7 10
07.07.2020 06:00:00 14,4 9,2 22 12 29 16 NW 1021,6 10
07.07.2020 05:00:00 14,7 11,8 16 9 - - NW 1021,6 10
07.07.2020 04:00:00 11,0 10,0 9 5 11 6 ZW 1022,1 10
07.07.2020 03:00:00 12,8 11,2 9 5 11 6 ZZW 1022,3 10
07.07.2020 02:00:00 13,6 11,4 7 4 - - ZZW 1022,6 25
07.07.2020 01:00:00 14,1 10,9 8 4 11 6 Z 1022,8 10
07.07.2020 00:00:00 13,8 11,4 4 2 11 6 Z 1023,0 10
06.07.2020 23:00:00 14,7 11,7 8 4 - - W 1023,0 10
06.07.2020 22:00:00 15,7 10,2 9 5 22 12 WNW 1022,6 10
06.07.2020 21:00:00 16,2 10,0 16 9 25 14 WNW 1022,3 10
06.07.2020 20:00:00 17,1 9,8 22 12 - - WNW 1022,0 10
06.07.2020 19:00:00 16,8 9,1 24 13 36 19 WNW 1021,8 10

tt = temperatuur
td = dauwpunt
ff = windsnelheid
fx = windstoten
dd = windrichting
ppp = luchtdruk
vv = zicht

Weerstations in de omgeving